Вернуться в каталог

FLOCK 4H 28

АктивенНаукаSSO
NORAD 66731·PAYLOAD·🇺🇸 United States

Запущен Nov 28, 2025 с Vandenberg Space Force Base

Loading…

Ближайшие Пролёты (ближайшие 24 часа)

TLE

СвежийSource: Space-Track

Эпоха: Sep 14, 2026, 14:50 UTC

1 66731U 25276BT  26257.61820640  .00010056  00000-0  45369-3 0  9996
2 66731  97.4103 329.5387 0005470  72.7639 287.4195 15.21188222 44002

Отслеживайте FLOCK 4H 28 в реальном времени с AllMySat

Download on the App Store